MAS8001 WMKJ-WMKK

Flight info

Callsign MAS8001
Flight time 0h 45m
Altitude 26000
Route WMKJ PIMOK GUPTA KK802 KK803 VEKTO NUKPA KK804 KK805 KK806 KK807 KK808 KK809 EGURI KK894 KK893 KK893 MOTKA FF32R WMKK
Aircraft A339/M-VGDW/C

Departure

Time 2026-05-06 08:08
Airport Senai International Airport (WMKJ)

Arrival

Time 2026-05-06 08:53
Airport Kuala Lumpur International Airport (WMKK)
Time Latitude Longitude Altitude Speed Heading
2026-05-06 07:58 1.63757 103.66780 159 ft 0 kts 155°
2026-05-06 08:00 1.63749 103.66784 159 ft 3 kts 155°
2026-05-06 08:00 1.63746 103.66785 159 ft 0 kts 155°
2026-05-06 08:01 1.63736 103.66790 159 ft 3 kts 155°
2026-05-06 08:01 1.63715 103.66800 159 ft 1 kts 155°
2026-05-06 08:01 1.63689 103.66812 159 ft 8 kts 154°
2026-05-06 08:01 1.63680 103.66847 159 ft 5 kts 88°
2026-05-06 08:02 1.63703 103.66869 159 ft 6 kts 31°
2026-05-06 08:02 1.63753 103.66866 159 ft 9 kts 346°
2026-05-06 08:02 1.63825 103.66840 159 ft 13 kts 339°
2026-05-06 08:02 1.63924 103.66803 159 ft 17 kts 339°
2026-05-06 08:03 1.64049 103.66758 159 ft 21 kts 340°
2026-05-06 08:03 1.64144 103.66724 159 ft 0 kts 340°
2026-05-06 08:03 1.64159 103.66719 159 ft 5 kts 340°
2026-05-06 08:03 1.64179 103.66712 159 ft 0 kts 340°
2026-05-06 08:04 1.64180 103.66711 159 ft 1 kts 340°
2026-05-06 08:04 1.64203 103.66703 159 ft 6 kts 340°
2026-05-06 08:05 1.64213 103.66699 159 ft 0 kts 340°
2026-05-06 08:05 1.64207 103.66702 159 ft 2 kts 340°
2026-05-06 08:05 1.64226 103.66706 159 ft 3 kts 18°
2026-05-06 08:06 1.64251 103.66722 159 ft 5 kts 43°
2026-05-06 08:06 1.64261 103.66732 159 ft 0 kts 44°
2026-05-06 08:06 1.64281 103.66769 160 ft 0 kts 61°
2026-05-06 08:07 1.64291 103.66829 160 ft 0 kts 105°
2026-05-06 08:07 1.64187 103.66899 160 ft 37 kts 166°
2026-05-06 08:07 1.63720 103.67066 159 ft 116 kts 159°
2026-05-06 08:07 1.62705 103.67436 205 ft 186 kts 159°
2026-05-06 08:08 1.61415 103.67925 734 ft 209 kts 160°
2026-05-06 08:08 1.59968 103.68481 1250 ft 234 kts 163°
2026-05-06 08:08 1.58326 103.68662 1896 ft 248 kts 184°
2026-05-06 08:08 1.56616 103.68142 2467 ft 263 kts 210°
2026-05-06 08:09 1.55335 103.66843 3096 ft 273 kts 239°
2026-05-06 08:09 1.54712 103.65024 3671 ft 286 kts 255°
2026-05-06 08:09 1.54188 103.62999 3720 ft 318 kts 255°
2026-05-06 08:09 1.53579 103.60766 3718 ft 344 kts 254°
2026-05-06 08:10 1.52950 103.58518 3700 ft 323 kts 254°
2026-05-06 08:10 1.52254 103.56504 3680 ft 292 kts 242°
2026-05-06 08:10 1.51021 103.55042 3681 ft 264 kts 217°
2026-05-06 08:10 1.49373 103.54292 3576 ft 264 kts 191°
2026-05-06 08:11 1.47534 103.54388 3859 ft 267 kts 162°
2026-05-06 08:11 1.45788 103.55019 4625 ft 267 kts 160°
2026-05-06 08:11 1.44025 103.55651 5330 ft 270 kts 160°
2026-05-06 08:11 1.42269 103.56281 6037 ft 273 kts 160°
2026-05-06 08:12 1.40408 103.56665 6667 ft 276 kts 180°
2026-05-06 08:12 1.39124 103.56482 7117 ft 277 kts 196°
2026-05-06 08:12 1.37440 103.55582 7761 ft 281 kts 220°
2026-05-06 08:12 1.35997 103.53398 8672 ft 290 kts 253°
2026-05-06 08:13 1.35789 103.52076 9199 ft 292 kts 269°
2026-05-06 08:13 1.36163 103.50084 9866 ft 295 kts 290°
2026-05-06 08:13 1.36870 103.48139 10456 ft 299 kts 290°
2026-05-06 08:13 1.37578 103.46178 11093 ft 301 kts 290°
2026-05-06 08:14 1.38292 103.44196 11709 ft 304 kts 290°
2026-05-06 08:14 1.39015 103.42187 12317 ft 308 kts 290°
2026-05-06 08:14 1.39742 103.40161 12942 ft 311 kts 290°
2026-05-06 08:14 1.40476 103.38109 13558 ft 315 kts 290°
2026-05-06 08:15 1.41214 103.36038 14105 ft 318 kts 290°
2026-05-06 08:15 1.41975 103.33951 14632 ft 321 kts 294°
2026-05-06 08:15 1.43236 103.32113 15161 ft 322 kts 317°
2026-05-06 08:15 1.44919 103.30620 15699 ft 325 kts 320°
2026-05-06 08:16 1.46625 103.29129 16242 ft 328 kts 320°
2026-05-06 08:16 1.48349 103.27621 16777 ft 331 kts 320°
2026-05-06 08:16 1.50085 103.26141 17229 ft 335 kts 324°
2026-05-06 08:16 1.52117 103.24901 17400 ft 349 kts 332°
2026-05-06 08:17 1.54254 103.23621 17541 ft 364 kts 328°
2026-05-06 08:17 1.56340 103.22093 17679 ft 379 kts 322°
2026-05-06 08:17 1.58353 103.20359 17808 ft 392 kts 319°
2026-05-06 08:17 1.60358 103.18471 18103 ft 398 kts 317°
2026-05-06 08:18 1.62349 103.16531 18493 ft 401 kts 317°
2026-05-06 08:18 1.64345 103.14575 18891 ft 403 kts 317°
2026-05-06 08:18 1.66356 103.12609 19278 ft 406 kts 317°
2026-05-06 08:18 1.68383 103.10636 19686 ft 408 kts 317°
2026-05-06 08:19 1.70419 103.08661 20075 ft 410 kts 317°
2026-05-06 08:19 1.72481 103.06663 20471 ft 413 kts 317°
2026-05-06 08:19 1.74551 103.04658 20870 ft 415 kts 317°
2026-05-06 08:19 1.76631 103.02643 21265 ft 418 kts 317°
2026-05-06 08:20 1.78701 103.00638 21652 ft 420 kts 317°
2026-05-06 08:20 1.80809 102.98595 22053 ft 423 kts 317°
2026-05-06 08:20 1.82931 102.96540 22451 ft 425 kts 317°
2026-05-06 08:20 1.85068 102.94470 22846 ft 428 kts 317°
2026-05-06 08:21 1.87217 102.92388 23237 ft 431 kts 317°
2026-05-06 08:21 1.89376 102.90297 23602 ft 433 kts 317°
2026-05-06 08:21 1.91553 102.88188 23956 ft 435 kts 317°
2026-05-06 08:21 1.93729 102.86080 24298 ft 438 kts 317°
2026-05-06 08:22 1.95921 102.83957 24642 ft 439 kts 317°
2026-05-06 08:22 1.98100 102.81846 24986 ft 442 kts 317°
2026-05-06 08:22 2.00322 102.79693 25323 ft 444 kts 317°
2026-05-06 08:22 2.02553 102.77531 25641 ft 447 kts 317°
2026-05-06 08:23 2.04792 102.75362 25775 ft 449 kts 317°
2026-05-06 08:23 2.07064 102.73162 25801 ft 460 kts 317°
2026-05-06 08:23 2.09376 102.70922 25797 ft 462 kts 317°
2026-05-06 08:23 2.11674 102.68695 25798 ft 456 kts 317°
2026-05-06 08:24 2.13916 102.66523 25797 ft 438 kts 317°
2026-05-06 08:24 2.16160 102.64624 25729 ft 419 kts 324°
2026-05-06 08:24 2.18549 102.63045 25577 ft 404 kts 331°
2026-05-06 08:24 2.21013 102.61756 25201 ft 396 kts 335°
2026-05-06 08:25 2.23476 102.60525 24751 ft 392 kts 335°
2026-05-06 08:25 2.25898 102.59301 24309 ft 388 kts 334°
2026-05-06 08:25 2.28295 102.58082 23876 ft 384 kts 334°
2026-05-06 08:25 2.30669 102.56872 23445 ft 380 kts 334°
2026-05-06 08:26 2.33014 102.55676 22943 ft 376 kts 334°
2026-05-06 08:26 2.35337 102.54492 22428 ft 372 kts 334°
2026-05-06 08:26 2.37639 102.53318 21931 ft 369 kts 334°
2026-05-06 08:26 2.39885 102.52173 21446 ft 365 kts 334°
2026-05-06 08:27 2.42143 102.51022 20961 ft 362 kts 334°
2026-05-06 08:27 2.44387 102.49879 20391 ft 362 kts 334°
2026-05-06 08:27 2.46641 102.48731 19828 ft 361 kts 334°
2026-05-06 08:27 2.48872 102.47588 19292 ft 360 kts 333°
2026-05-06 08:28 2.50966 102.46261 18765 ft 360 kts 324°
2026-05-06 08:28 2.52857 102.44626 18232 ft 360 kts 316°
2026-05-06 08:28 2.54544 102.42779 17652 ft 359 kts 313°
2026-05-06 08:28 2.56217 102.40930 17049 ft 357 kts 313°
2026-05-06 08:29 2.57887 102.39107 16509 ft 354 kts 314°
2026-05-06 08:29 2.59540 102.37312 16237 ft 351 kts 314°
2026-05-06 08:29 2.61205 102.35507 16001 ft 353 kts 314°
2026-05-06 08:29 2.62866 102.33706 15756 ft 351 kts 314°
2026-05-06 08:30 2.64519 102.31912 15512 ft 349 kts 314°
2026-05-06 08:30 2.66167 102.30127 15283 ft 348 kts 314°
2026-05-06 08:30 2.67804 102.28352 15037 ft 347 kts 314°
2026-05-06 08:30 2.69440 102.26580 14810 ft 345 kts 314°
2026-05-06 08:31 2.71095 102.24904 14784 ft 343 kts 317°
2026-05-06 08:31 2.72834 102.23254 14783 ft 345 kts 317°
2026-05-06 08:31 2.74571 102.21600 14777 ft 345 kts 317°
2026-05-06 08:31 2.76313 102.19936 14782 ft 345 kts 317°
2026-05-06 08:32 2.78041 102.18280 14782 ft 344 kts 317°
2026-05-06 08:32 2.79942 102.16847 14783 ft 342 kts 334°
2026-05-06 08:32 2.82202 102.16154 14776 ft 340 kts 355°
2026-05-06 08:32 2.84556 102.16173 14779 ft 337 kts
2026-05-06 08:33 2.86891 102.16423 14778 ft 337 kts
2026-05-06 08:33 2.89240 102.16415 14777 ft 339 kts 356°
2026-05-06 08:33 2.91541 102.16034 14774 ft 340 kts 351°
2026-05-06 08:33 2.93860 102.15583 14771 ft 340 kts 350°
2026-05-06 08:34 2.96145 102.14956 14771 ft 341 kts 341°
2026-05-06 08:34 3.00431 102.12872 14771 ft 343 kts 334°
2026-05-06 08:34 3.02522 102.11736 14775 ft 343 kts 329°
2026-05-06 08:35 3.04423 102.10286 14773 ft 344 kts 319°
2026-05-06 08:35 3.06203 102.08679 14776 ft 344 kts 319°
2026-05-06 08:35 3.07956 102.07081 14767 ft 345 kts 316°
2026-05-06 08:35 3.09512 102.05252 14777 ft 346 kts 307°
2026-05-06 08:36 3.10835 102.03241 14778 ft 347 kts 304°
2026-05-06 08:36 3.12152 102.01222 14773 ft 346 kts 303°
2026-05-06 08:36 3.13278 101.99100 14566 ft 344 kts 294°
2026-05-06 08:36 3.14038 101.96835 14192 ft 342 kts 283°
2026-05-06 08:37 3.14135 101.94472 13935 ft 340 kts 261°
2026-05-06 08:37 3.13376 101.92232 13725 ft 342 kts 239°
2026-05-06 08:37 3.11893 101.90436 13492 ft 339 kts 218°
2026-05-06 08:37 3.09862 101.89297 13232 ft 333 kts 196°
2026-05-06 08:38 3.07586 101.88995 12986 ft 328 kts 174°
2026-05-06 08:38 3.05339 101.89330 12812 ft 326 kts 168°
2026-05-06 08:38 3.03084 101.89611 12780 ft 327 kts 174°
2026-05-06 08:38 3.00800 101.89601 12775 ft 329 kts 182°
2026-05-06 08:39 2.98525 101.89349 12774 ft 330 kts 186°
2026-05-06 08:39 2.96260 101.88961 12771 ft 330 kts 189°
2026-05-06 08:39 2.94008 101.88517 12772 ft 326 kts 189°
2026-05-06 08:39 2.91848 101.88075 12770 ft 306 kts 189°
2026-05-06 08:40 2.89835 101.87664 12768 ft 283 kts 189°
2026-05-06 08:40 2.87977 101.87290 12766 ft 262 kts 189°
2026-05-06 08:40 2.86268 101.86760 12780 ft 262 kts 206°
2026-05-06 08:40 2.84888 101.85598 12773 ft 266 kts 232°
2026-05-06 08:41 2.83860 101.84066 12775 ft 266 kts 236°
2026-05-06 08:41 2.82831 101.82444 12776 ft 288 kts 237°
2026-05-06 08:41 2.81612 101.80813 12749 ft 296 kts 222°
2026-05-06 08:41 2.79906 101.79714 12634 ft 290 kts 199°
2026-05-06 08:42 2.77942 101.79371 12342 ft 285 kts 175°
2026-05-06 08:42 2.76058 101.79851 12052 ft 279 kts 151°
2026-05-06 08:42 2.74554 101.81037 11772 ft 275 kts 131°
2026-05-06 08:42 2.73279 101.82486 11341 ft 279 kts 130°
2026-05-06 08:43 2.71934 101.83872 10853 ft 276 kts 136°
2026-05-06 08:43 2.70477 101.85110 10405 ft 273 kts 141°
2026-05-06 08:43 2.68970 101.86222 9951 ft 270 kts 144°
2026-05-06 08:43 2.67425 101.87278 9469 ft 270 kts 145°
2026-05-06 08:44 2.65855 101.88319 8987 ft 269 kts 146°
2026-05-06 08:44 2.64298 101.89346 8481 ft 265 kts 146°
2026-05-06 08:44 2.62764 101.90360 7996 ft 264 kts 146°
2026-05-06 08:44 2.61233 101.91379 7520 ft 263 kts 146°
2026-05-06 08:45 2.59722 101.92387 7058 ft 259 kts 145°
2026-05-06 08:45 2.58228 101.93386 6844 ft 260 kts 145°
2026-05-06 08:45 2.56725 101.94392 6777 ft 260 kts 145°
2026-05-06 08:45 2.55217 101.95388 6768 ft 260 kts 148°
2026-05-06 08:46 2.53511 101.95947 6768 ft 260 kts 174°
2026-05-06 08:46 2.51758 101.95738 6556 ft 259 kts 199°
2026-05-06 08:46 2.50246 101.94788 6082 ft 258 kts 225°
2026-05-06 08:46 2.49281 101.93293 5479 ft 257 kts 246°
2026-05-06 08:47 2.48871 101.91561 4816 ft 257 kts 271°
2026-05-06 08:47 2.49282 101.89850 4272 ft 252 kts 298°
2026-05-06 08:47 2.50393 101.88533 4060 ft 253 kts 324°
2026-05-06 08:47 2.51888 101.87595 3999 ft 252 kts 330°
2026-05-06 08:48 2.53373 101.86666 4002 ft 252 kts 329°
2026-05-06 08:48 2.54849 101.85702 3998 ft 252 kts 328°
2026-05-06 08:48 2.56306 101.84722 3997 ft 253 kts 327°
2026-05-06 08:48 2.57772 101.83752 3998 ft 252 kts 328°
2026-05-06 08:49 2.59208 101.82758 3722 ft 256 kts 324°
2026-05-06 08:49 2.60657 101.81761 3300 ft 248 kts 323°
2026-05-06 08:49 2.62041 101.80800 3167 ft 231 kts 326°
2026-05-06 08:49 2.63300 101.79951 3221 ft 208 kts 328°
2026-05-06 08:50 2.64504 101.79221 3469 ft 197 kts 331°
2026-05-06 08:50 2.65722 101.78542 3405 ft 208 kts 330°
2026-05-06 08:50 2.66947 101.77771 2816 ft 206 kts 331°
2026-05-06 08:50 2.68134 101.76991 2215 ft 207 kts 323°
2026-05-06 08:51 2.69275 101.76119 1703 ft 204 kts 321°
2026-05-06 08:51 2.70379 101.75259 1241 ft 199 kts 320°
2026-05-06 08:51 2.71419 101.74404 950 ft 186 kts 318°
2026-05-06 08:51 2.72478 101.73632 942 ft 191 kts 328°
2026-05-06 08:52 2.73643 101.72950 653 ft 196 kts 329°
2026-05-06 08:52 2.74746 101.72254 309 ft 184 kts 325°
2026-05-06 08:52 2.75751 101.71569 109 ft 164 kts 328°
2026-05-06 08:52 2.76647 101.70988 67 ft 137 kts 325°
2026-05-06 08:53 2.77273 101.70571 64 ft 78 kts 326°
2026-05-06 08:53 2.77559 101.70381 61 ft 21 kts 326°
2026-05-06 08:53 2.77628 101.70336 59 ft 17 kts 326°
2026-05-06 08:53 2.77731 101.70269 63 ft 18 kts 327°
2026-05-06 08:54 2.77810 101.70183 62 ft 14 kts 278°
2026-05-06 08:54 2.77768 101.70101 62 ft 14 kts 234°
2026-05-06 08:54 2.77685 101.70078 62 ft 12 kts 161°
2026-05-06 08:54 2.77609 101.70120 62 ft 13 kts 147°
2026-05-06 08:55 2.77526 101.70175 60 ft 16 kts 146°
2026-05-06 08:55 2.77430 101.70240 61 ft 17 kts 146°
2026-05-06 08:55 2.77332 101.70307 65 ft 17 kts 145°
2026-05-06 08:55 2.77235 101.70375 70 ft 17 kts 148°
2026-05-06 08:56 2.77132 101.70440 63 ft 18 kts 147°
2026-05-06 08:56 2.77029 101.70508 65 ft 17 kts 146°
2026-05-06 08:56 2.76926 101.70577 64 ft 19 kts 146°
2026-05-06 08:56 2.76815 101.70652 64 ft 19 kts 146°
2026-05-06 08:57 2.76702 101.70727 65 ft 20 kts 146°
2026-05-06 08:57 2.76581 101.70807 62 ft 22 kts 146°
2026-05-06 08:57 2.76454 101.70892 64 ft 22 kts 146°
2026-05-06 08:57 2.76326 101.70977 63 ft 22 kts 147°
2026-05-06 08:58 2.76187 101.71032 68 ft 22 kts 169°
2026-05-06 08:58 2.76041 101.71063 65 ft 22 kts 161°
2026-05-06 08:58 2.75913 101.71141 65 ft 22 kts 145°
2026-05-06 08:58 2.75788 101.71227 67 ft 22 kts 144°
2026-05-06 08:59 2.75660 101.71314 65 ft 22 kts 146°
2026-05-06 08:59 2.75554 101.71385 65 ft 15 kts 146°
2026-05-06 08:59 2.75473 101.71439 83 ft 13 kts 146°
2026-05-06 08:59 2.75425 101.71462 85 ft 9 kts 171°
2026-05-06 09:00 2.75367 101.71424 87 ft 8 kts 227°
2026-05-06 09:00 2.75331 101.71372 85 ft 10 kts 236°
2026-05-06 09:00 2.75288 101.71307 86 ft 12 kts 236°
2026-05-06 09:00 2.75236 101.71229 86 ft 14 kts 236°
2026-05-06 09:01 2.75197 101.71171 84 ft 16 kts 236°
2026-05-06 09:01 2.75163 101.71121 86 ft 6 kts 236°
2026-05-06 09:01 2.75143 101.71091 86 ft 6 kts 236°
2026-05-06 09:01 2.75114 101.71085 82 ft 4 kts 175°
2026-05-06 09:02 2.75088 101.71098 85 ft 5 kts 157°
2026-05-06 09:02 2.75057 101.71121 87 ft 6 kts 136°
2026-05-06 09:02 2.75038 101.71142 84 ft 0 kts 132°
2026-05-06 09:02 2.75036 101.71144 85 ft 0 kts 132°